Weather History for Grand Marais Airport, MN

Change the Weather History Date:

Thursday, January 24, 2013

  Actual Average Record
Temperature  
Mean Temperature -8 °F -  
Max Temperature 6 °F 15 °F 28 °F (2006)
Min Temperature -23 °F 0 °F -23 °F (2013)
Degree Days  
Heating Degree Days 74    
Moisture  
Dew Point -17 °F    
Average Humidity 69    
Maximum Humidity 85    
Minimum Humidity 39    
Precipitation  
Precipitation 0.01 in - - ()
Sea Level Pressure  
Sea Level Pressure 30.36 in    
Wind  
Wind Speed 5 mph (WSW)    
Max Wind Speed 15 mph    
Max Gust Speed 18 mph    
Visibility 7 miles    
Events Snow    
Averages and records for this station are not official NWS values.
T = Trace of Precipitation, MM = Missing Value Source: NWS Daily Summary

Daily Weather History Graph

Daily Weather History Graph

Search for Another Location

Airport:

Trip Planner

Search our weather history database for the weather conditions in past years. The results will help you decide how hot, cold, wet, or windy it might be!

Date:

Astronomy

Jan. 24, 2013 Rise Set
Actual Time 7:37 AM CST 4:50 PM CST
Civil Twilight 7:03 AM CST 5:24 PM CST
Nautical Twilight 6:26 AM CST 6:01 PM CST
Astronomical Twilight 5:49 AM CST 6:38 PM CST
Moon 2:49 PM CST (1/24) 5:38 AM CST (1/24)
Length of Visible Light 10h 20m
Length of Day
9h 12m
Waxing Gibbous, 94% of the Moon is Illuminated
Jan 24
Waxing Gibbous
Jan 26
Full
Feb 3
Last Quarter
Feb 10
New
Feb 17
First Quarter

Hourly Weather History & Observations

Time (CST) Temp. Windchill Dew Point Humidity Pressure Visibility Wind Dir Wind Speed Gust Speed Precip Events Conditions
12:13 AM -20.2 °F -35.5 °F -29.2 °F 63% 30.42 in 10.0 mi NNW 5.8 mph - N/A   Clear
12:33 AM -20.2 °F -33.5 °F -29.2 °F 63% 30.43 in 10.0 mi WNW 4.6 mph - N/A   Clear
12:54 AM -20.2 °F -30.9 °F -29.2 °F 63% 30.44 in 10.0 mi NW 3.5 mph - N/A   Scattered Clouds
1:14 AM -22.0 °F -33.0 °F -29.2 °F 69% 30.44 in 10.0 mi WNW 3.5 mph - N/A   Scattered Clouds
1:33 AM -22.0 °F -33.0 °F -31.0 °F 63% 30.44 in 10.0 mi NNW 3.5 mph - N/A   Scattered Clouds
1:53 AM -23.8 °F -41.6 °F -31.0 °F 69% 30.44 in 10.0 mi NNW 6.9 mph - N/A   Clear
2:14 AM -23.8 °F - -31.0 °F 69% 30.44 in 10.0 mi Calm Calm - N/A   Clear
2:33 AM -23.8 °F -43.2 °F -31.0 °F 69% 30.45 in 10.0 mi NW 8.1 mph - N/A   Scattered Clouds
2:53 AM -23.8 °F -46.9 °F -32.8 °F 63% 30.44 in 10.0 mi North 11.5 mph - N/A   Scattered Clouds
3:14 AM -23.8 °F -49.8 °F -31.0 °F 69% 30.43 in 10.0 mi NNW 15.0 mph - N/A   Scattered Clouds
3:34 AM -23.8 °F -48.0 °F -31.0 °F 69% 30.43 in 10.0 mi NNW 12.7 mph 18.4 mph N/A   Clear
3:53 AM -23.8 °F -44.5 °F -31.0 °F 69% 30.44 in 10.0 mi NNW 9.2 mph - N/A   Clear
4:13 AM -23.8 °F -46.9 °F -31.0 °F 69% 30.44 in 10.0 mi NNW 11.5 mph - N/A   Clear
4:33 AM -23.8 °F -39.8 °F -32.8 °F 63% 30.45 in 10.0 mi NNW 5.8 mph - N/A   Clear
4:53 AM -23.8 °F -39.8 °F -32.8 °F 63% 30.45 in 10.0 mi NNW 5.8 mph - N/A   Clear
5:13 AM -23.8 °F -41.6 °F -32.8 °F 63% 30.44 in 10.0 mi NNW 6.9 mph - N/A   Clear
5:34 AM -23.8 °F -37.7 °F -32.8 °F 63% 30.45 in 10.0 mi NNW 4.6 mph - N/A   Clear
5:54 AM -23.8 °F -35.0 °F -32.8 °F 63% 30.46 in 10.0 mi North 3.5 mph - N/A   Clear
6:13 AM -23.8 °F -45.8 °F -32.8 °F 63% 30.47 in 10.0 mi NNW 10.4 mph - N/A   Scattered Clouds
6:34 AM -23.8 °F -43.2 °F -32.8 °F 63% 30.47 in 10.0 mi North 8.1 mph - N/A   Clear
6:53 AM -23.8 °F -39.8 °F -32.8 °F 63% 30.47 in 10.0 mi NNW 5.8 mph - N/A   Clear
7:13 AM -23.8 °F -37.7 °F -32.8 °F 63% 30.48 in 10.0 mi NNW 4.6 mph - N/A   Clear
7:34 AM -23.8 °F - -32.8 °F 63% 30.49 in 10.0 mi Calm Calm - N/A   Clear
7:53 AM -23.8 °F -37.7 °F -32.8 °F 63% 30.48 in 10.0 mi NNW 4.6 mph - N/A   Clear
8:13 AM -23.8 °F - -32.8 °F 63% 30.49 in 10.0 mi Calm Calm - N/A   Clear
8:33 AM -20.2 °F -35.5 °F -31.0 °F 58% 30.48 in 10.0 mi NNW 5.8 mph - N/A   Clear
8:54 AM -20.2 °F -35.5 °F -29.2 °F 63% 30.46 in 10.0 mi North 5.8 mph - N/A   Clear
9:13 AM -18.4 °F -28.9 °F -29.2 °F 58% 30.46 in 10.0 mi North 3.5 mph - N/A   Clear
9:33 AM -14.8 °F - -25.6 °F 58% 30.46 in 10.0 mi Calm Calm - N/A   Clear
9:54 AM -13.0 °F - -23.8 °F 59% 30.47 in 10.0 mi Calm Calm - N/A   Mostly Cloudy
10:13 AM -9.4 °F - -16.6 °F 71% 30.46 in 10.0 mi Calm Calm - N/A   Overcast
10:33 AM -7.6 °F -16.5 °F -14.8 °F 71% 30.46 in 10.0 mi SSW 3.5 mph - N/A   Overcast
10:54 AM -7.6 °F -20.6 °F -14.8 °F 71% 30.45 in 10.0 mi SSW 5.8 mph - N/A   Overcast
11:13 AM -5.8 °F -21.2 °F -13.0 °F 71% 30.45 in 5.0 mi SSW 8.1 mph - N/A   Haze
11:34 AM -4.0 °F -17.8 °F -16.6 °F 55% 30.44 in 10.0 mi South 6.9 mph - N/A   Mostly Cloudy
11:53 AM -2.2 °F -14.2 °F -18.4 °F 46% 30.44 in 10.0 mi SSW 5.8 mph - N/A   Clear
12:14 PM -2.2 °F -12.5 °F -20.2 °F 42% 30.43 in 10.0 mi SSW 4.6 mph - N/A   Clear
12:33 PM -0.4 °F -13.4 °F -20.2 °F 39% 30.42 in 10.0 mi SSW 6.9 mph - N/A   Clear
12:54 PM -0.4 °F -12.0 °F -16.6 °F 46% 30.41 in 10.0 mi South 5.8 mph - N/A   Clear
1:14 PM -0.4 °F -12.0 °F -14.8 °F 51% 30.40 in 10.0 mi SW 5.8 mph - N/A   Clear
1:33 PM -2.2 °F -15.6 °F -11.2 °F 66% 30.40 in 10.0 mi SW 6.9 mph - N/A   Clear
1:54 PM -2.2 °F -16.8 °F -11.2 °F 66% 30.39 in 10.0 mi SSW 8.1 mph - N/A   Scattered Clouds
2:13 PM -2.2 °F -15.6 °F -9.4 °F 71% 30.39 in 10.0 mi SSW 6.9 mph - N/A   Mostly Cloudy
2:33 PM -2.2 °F -15.6 °F -9.4 °F 71% 30.39 in 10.0 mi SSW 6.9 mph - N/A   Overcast
2:54 PM -2.2 °F -12.5 °F -7.6 °F 78% 30.37 in 7.0 mi SSW 4.6 mph - N/A Snow Light Snow
3:13 PM -2.2 °F -10.4 °F -7.6 °F 78% 30.35 in 7.0 mi SSW 3.5 mph - N/A Snow Light Snow
3:33 PM -2.2 °F -10.4 °F -7.6 °F 78% 30.35 in 7.0 mi SSW 3.5 mph - N/A Snow Light Snow
3:54 PM -2.2 °F -10.4 °F -7.6 °F 78% 30.35 in 10.0 mi SSW 3.5 mph - N/A   Overcast
4:13 PM -2.2 °F - -7.6 °F 78% 30.32 in 7.0 mi Calm Calm - N/A Snow Light Snow
4:33 PM -0.4 °F - -7.6 °F 72% 30.31 in 7.0 mi Calm Calm - N/A   Overcast
4:54 PM -0.4 °F - -5.8 °F 78% 30.31 in 4.0 mi Calm Calm - N/A Snow Light Snow
5:13 PM -0.4 °F - -5.8 °F 78% 30.29 in 4.0 mi Calm Calm - N/A Snow Light Snow
5:34 PM -0.4 °F - -5.8 °F 78% 30.29 in 5.0 mi Calm Calm - N/A Snow Light Snow
5:54 PM -0.4 °F - -7.6 °F 72% 30.28 in 7.0 mi Calm Calm - N/A Snow Light Snow
6:13 PM -0.4 °F - -5.8 °F 78% 30.27 in 4.0 mi Calm Calm - N/A Snow Light Snow
6:34 PM -0.4 °F - -5.8 °F 78% 30.26 in 5.0 mi Calm Calm - N/A Snow Light Snow
6:53 PM -0.4 °F - -5.8 °F 78% 30.26 in 5.0 mi Calm Calm - N/A Snow Light Snow
7:14 PM -0.4 °F - -5.8 °F 78% 30.25 in 7.0 mi Calm Calm - N/A   Overcast
7:33 PM -0.4 °F - -5.8 °F 78% 30.24 in 1.2 mi Calm Calm - N/A Snow Light Snow
7:53 PM -0.4 °F - -5.8 °F 78% 30.23 in 1.0 mi Calm Calm - N/A   Overcast
8:14 PM -0.4 °F - -5.8 °F 78% 30.21 in 0.8 mi Calm Calm - N/A Snow Snow
8:33 PM 1.4 °F -9.9 °F -4.0 °F 78% 30.19 in 0.5 mi SSE 5.8 mph - N/A Snow Snow
8:53 PM 3.2 °F -11.3 °F -0.4 °F 85% 30.18 in 0.5 mi South 9.2 mph - N/A Snow Snow
9:14 PM 3.2 °F -10.3 °F -2.2 °F 78% 30.17 in 1.0 mi SSE 8.1 mph - N/A Snow Light Snow
9:33 PM 3.2 °F -11.3 °F -0.4 °F 85% 30.16 in 0.8 mi South 9.2 mph - 0.01 in Snow Snow
9:53 PM 3.2 °F -7.8 °F -0.4 °F 85% 30.16 in 0.8 mi South 5.8 mph - 0.01 in Snow Snow
10:13 PM 5.0 °F -6.9 °F -0.4 °F 78% 30.15 in 1.2 mi South 6.9 mph - N/A Snow Light Snow
10:33 PM 5.0 °F -8.1 °F -0.4 °F 78% 30.14 in 2.5 mi South 8.1 mph - N/A Snow Light Snow
10:53 PM 5.0 °F -5.6 °F -0.4 °F 78% 30.13 in 1.0 mi South 5.8 mph - N/A Snow Snow
11:14 PM 6.8 °F -6.9 °F 1.4 °F 79% 30.11 in 0.8 mi South 9.2 mph - N/A Snow Snow
11:33 PM 6.8 °F -6.9 °F 1.4 °F 79% 30.09 in 1.5 mi SSE 9.2 mph - N/A Snow Light Snow
11:53 PM 6.8 °F -5.9 °F 1.4 °F 79% 30.08 in 1.5 mi South 8.1 mph - N/A Snow Light Snow